CW4731 Weather Reports


time (UTC)temp
C
wind
direction
speed
KPH
gust
KPH
rain 1hr
cm
rain 24hr
cm
rain mn
cm
humidity
%
barometer
mb
20260503235858 20 121 1.6 4.8 0.00 0.05 0.05 39 995.2
20260503235356 20 121 3.2 4.8 0.00 0.05 0.05 39 995.0
20260503234831 20 138 0.0 8.0 0.00 0.05 0.05 40 995.1
20260503234331 20 133 1.6 8.0 0.00 0.05 0.05 39 994.9
20260503233831 21 86 0.0 1.6 0.00 0.05 0.05 40 994.9
20260503233613 21 127 0.0 16.1 0.00 0.05 0.05 39 994.9
20260503233033 21 127 1.6 16.1 0.00 0.05 0.05 37 994.9
20260503232305 21 180 3.2 8.0 0.00 0.05 0.05 36 994.8
20260503231756 21 148 1.6 11.3 0.00 0.05 0.05 38 994.9
20260503231256 22 149 1.6 8.0 0.00 0.05 0.05 36 994.9
20260503231017 22 171 3.2 17.7 0.00 0.05 0.05 35 994.7
20260503230253 22 155 6.4 17.7 0.00 0.05 0.05 38 994.7
20260503225748 22 159 9.7 17.7 0.00 0.05 0.05 35 994.7
20260503225231 22 157 4.8 11.3 0.00 0.05 0.05 37 994.7
20260503224731 22 138 4.8 9.7 0.00 0.05 0.05 34 994.6
20260503224450 22 155 1.6 8.0 0.00 0.05 0.05 36 994.7
20260503223705 22 155 3.2 16.1 0.00 0.05 0.05 32 994.7
20260503223202 22 155 9.7 17.7 0.00 0.05 0.05 33 994.7
20260503222702 22 161 11.3 17.7 0.00 0.05 0.05 33 994.7
20260503222202 22 219 6.4 14.5 0.00 0.05 0.05 31 994.8
20260503221702 23 154 1.6 16.1 0.00 0.05 0.05 34 994.8
20260503221429 23 164 6.4 16.1 0.00 0.05 0.05 32 994.9
20260503220703 23 164 8.0 20.9 0.00 0.05 0.05 32 994.7
20260503220202 23 164 8.0 20.9 0.00 0.05 0.05 31 994.8
20260503215703 23 192 11.3 19.3 0.00 0.05 0.05 31 994.9
20260503215201 23 165 6.4 20.9 0.00 0.05 0.05 33 994.8
20260503214702 23 168 9.7 20.9 0.00 0.05 0.05 32 994.9
20260503214202 23 178 8.0 19.3 0.00 0.05 0.05 32 994.9
20260503213925 23 172 9.7 19.3 0.00 0.05 0.05 33 994.7
20260503213432 23 158 11.3 19.3 0.00 0.05 0.05 35 994.7
20260503212702 23 185 9.7 19.3 0.00 0.05 0.05 34 994.7
20260503212202 23 168 6.4 22.5 0.00 0.05 0.05 32 994.7
20260503211703 23 159 12.9 22.5 0.00 0.05 0.05 33 994.7
20260503211202 24 164 11.3 19.3 0.00 0.05 0.05 32 994.7
20260503210707 23 196 4.8 25.7 0.00 0.05 0.05 36 994.6
20260503210202 23 209 16.1 25.7 0.00 0.05 0.05 35 994.6
20260503205918 23 168 14.5 22.5 0.00 0.05 0.05 34 994.6
20260503205200 23 179 12.9 19.3 0.00 0.05 0.05 37 994.7
20260503204909 23 154 12.9 19.3 0.00 0.05 0.05 37 994.7
20260503204149 23 158 12.9 20.9 0.00 0.05 0.05 36 994.7
20260503203652 23 155 11.3 20.9 0.00 0.05 0.05 35 994.8
20260503203152 23 171 11.3 19.3 0.00 0.05 0.05 36 994.9
20260503202652 23 161 6.4 19.3 0.00 0.05 0.05 36 995.0
20260503202149 23 164 12.9 19.3 0.00 0.05 0.05 36 995.1
20260503201909 23 186 8.0 19.3 0.00 0.05 0.05 40 995.0
20260503201149 23 149 9.7 19.3 0.00 0.05 0.05 37 995.0
20260503200649 23 164 11.3 17.7 0.00 0.05 0.05 38 995.1
20260503200149 23 209 8.0 16.1 0.00 0.05 0.05 37 995.1
20260503195649 23 190 9.7 16.1 0.00 0.05 0.05 38 995.2
20260503195149 23 161 6.4 11.3 0.00 0.05 0.05 39 995.1
20260503194648 23 199 1.6 11.3 0.00 0.05 0.05 41 995.4
20260503194149 23 212 4.8 11.3 0.00 0.05 0.05 37 995.4
20260503193648 23 168 4.8 16.1 0.00 0.05 0.05 41 995.5
20260503193148 23 162 9.7 16.1 0.00 0.05 0.05 40 995.5
20260503192648 23 151 9.7 14.5 0.00 0.05 0.05 41 995.6
20260503192148 23 155 6.4 14.5 0.00 0.05 0.05 43 995.6
20260503191647 23 185 4.8 11.3 0.00 0.05 0.05 44 995.7
20260503191148 22 213 8.0 9.7 0.00 0.05 0.05 42 995.8
20260503190648 22 190 1.6 8.0 0.00 0.05 0.05 39 995.8
20260503190147 22 176 4.8 9.7 0.00 0.05 0.05 39 995.8
20260503185647 22 154 4.8 9.7 0.00 0.05 0.05 37 995.9
20260503185148 22 196 6.4 11.3 0.00 0.05 0.05 37 996.0
20260503184648 22 161 8.0 11.3 0.00 0.05 0.05 40 996.1
20260503184147 22 154 8.0 9.7 0.00 0.05 0.05 40 996.0
20260503183645 22 195 4.8 9.7 0.00 0.05 0.05 41 996.3
20260503183145 22 171 4.8 9.7 0.00 0.05 0.05 40 996.2
20260503182645 22 180 3.2 8.0 0.00 0.05 0.05 41 996.3
20260503182145 22 292 1.6 6.4 0.00 0.05 0.05 40 996.2
20260503181643 22 155 4.8 9.7 0.00 0.05 0.05 43 996.3
20260503181143 22 155 4.8 9.7 0.00 0.05 0.05 43 996.4
20260503180901 21 206 3.2 9.7 0.00 0.05 0.05 41 996.3
20260503180611 21 183 0.0 11.3 0.00 0.05 0.05 42 996.4
20260503175631 21 162 4.8 11.3 0.00 0.05 0.05 44 996.5
20260503175131 21 171 4.8 14.5 0.00 0.05 0.05 42 996.5
20260503174632 21 145 4.8 14.5 0.00 0.05 0.05 44 996.5
20260503174131 21 172 0.0 4.8 0.00 0.05 0.05 46 996.6
20260503173632 21 172 0.0 6.4 0.00 0.05 0.05 46 996.6
20260503173353 21 172 3.2 8.0 0.00 0.05 0.05 43 996.7
20260503172631 21 186 3.2 8.0 0.00 0.05 0.05 42 996.9
20260503172131 21 192 0.0 8.0 0.00 0.05 0.05 43 996.9
20260503171631 20 183 6.4 9.7 0.00 0.05 0.05 45 997.0
20260503171610 20 214 4.8 11.3 0.00 0.05 0.05 45 997.0
20260503170632 20 200 3.2 11.3 0.00 0.05 0.05 42 997.1
20260503170131 20 204 0.0 9.7 0.00 0.05 0.05 44 997.3
20260503150536 17 200 8.0 19.3 0.00 0.05 0.05 48 998.0
20260503150302 17 203 3.2 24.1 0.00 0.05 0.05 49 998.0
20260503131020 13 298 1.6 8.0 0.00 0.05 0.05 58 999.1
20260503130520 13 302 4.8 8.0 0.00 0.05 0.05 64 998.9
20260503130241 13 0 3.2 8.0 0.00 0.05 0.03 63 999.0
20260503110504 11 158 4.8 9.7 0.03 0.03 0.00 66 999.7
20260503100223 12 171 3.2 9.7 0.00 0.00 0.00 59 1000.6
20260503090431 12 0 1.6 6.4 0.00 0.00 0.00 60 1001.2
20260503081405 11 66 0.0 1.6 0.00 0.00 0.00 59 1001.7
20260503080904 11 63 0.0 4.8 0.00 0.00 0.00 58 1001.6
20260503080404 11 63 0.0 4.8 0.00 0.00 0.00 62 1001.7
20260503072902 11 30 0.0 0.0 0.00 0.00 0.00 58 1001.8
20260503072402 11 30 0.0 4.8 0.00 0.00 0.00 58 1001.8
20260503071902 11 30 0.0 4.8 0.00 0.00 0.00 58 1001.9
20260503071622 11 133 1.6 4.8 0.00 0.00 0.00 57 1001.9
20260503070902 11 133 1.6 4.8 0.00 0.00 0.00 57 1002.0
20260503070839 11 114 0.0 1.6 0.00 0.00 0.00 60 1002.1
20260503070643 11 114 0.0 0.0 0.00 0.00 0.00 60 1002.1
20260503054902 10 73 3.2 8.0 0.00 0.00 0.00 63 1002.6
20260503054402 10 73 0.0 3.2 0.00 0.00 0.00 62 1002.7
20260503053903 10 73 0.0 4.8 0.00 0.00 0.00 62 1002.7
20260503053623 10 73 3.2 4.8 0.00 0.00 0.00 61 1002.8
20260503052903 10 73 0.0 0.0 0.00 0.00 0.00 61 1002.7
20260503052401 10 73 0.0 4.8 0.00 0.00 0.00 58 1002.9
20260503051902 10 73 0.0 4.8 0.00 0.00 0.00 58 1002.8
20260503051401 10 4 0.0 4.8 0.00 0.00 0.00 61 1002.9
20260503051123 10 4 0.0 0.0 0.00 0.00 0.00 60 1002.8
20260503050402 10 4 0.0 0.0 0.00 0.00 0.00 60 1002.8
20260503045901 10 4 0.0 3.2 0.00 0.00 0.00 62 1002.9
20260503045403 10 4 3.2 4.8 0.00 0.00 0.00 61 1002.9
20260503044903 10 4 0.0 4.8 0.00 0.00 0.00 62 1002.9
20260503044402 10 4 0.0 1.6 0.00 0.00 0.00 61 1002.8
20260503043902 10 4 0.0 1.6 0.00 0.00 0.00 59 1002.9
20260503043402 10 3 0.0 1.6 0.00 0.00 0.00 58 1002.9
20260503042902 10 3 0.0 1.6 0.00 0.00 0.00 59 1003.0
20260503042403 10 3 0.0 3.2 0.00 0.00 0.00 60 1003.0
20260503041902 10 3 0.0 3.2 0.00 0.00 0.00 61 1003.1
20260503041402 10 3 0.0 1.6 0.00 0.00 0.00 60 1003.2
20260503041130 10 1 0.0 4.8 0.00 0.00 0.00 59 1003.1
20260503040626 10 1 0.0 4.8 0.00 0.00 0.00 61 1003.2
20260503035848 10 0 0.0 3.2 0.00 0.00 0.00 61 1003.3
20260503035346 10 0 0.0 1.6 0.00 0.00 0.00 62 1003.3
20260503035108 10 348 0.0 0.0 0.00 0.00 0.00 62 1003.3
20260503034602 10 348 0.0 0.0 0.00 0.00 0.00 62 1003.5
20260503033835 10 348 0.0 0.0 0.00 0.00 0.00 63 1003.5
20260503033331 10 348 0.0 0.0 0.00 0.00 0.00 63 1003.7
20260503032833 10 348 0.0 4.8 0.00 0.00 0.00 63 1003.7
20260503032331 10 348 0.0 4.8 0.00 0.00 0.00 63 1003.7
20260503032052 10 348 3.2 4.8 0.00 0.00 0.00 62 1003.7
20260503031801 10 348 0.0 0.0 0.00 0.00 0.00 63 1003.8
20260503031525 10 348 0.0 0.0 0.00 0.00 0.00 63 1003.8
20260503030331 10 348 0.0 0.0 0.00 0.00 0.00 63 1003.9
20260503025831 10 348 0.0 0.0 0.00 0.00 0.00 61 1003.9
20260503025331 10 348 0.0 0.0 0.00 0.00 0.00 62 1003.9
20260503024830 10 348 0.0 0.0 0.00 0.00 0.00 61 1004.0
20260503024331 10 348 0.0 0.0 0.00 0.00 0.00 61 1003.9
20260503023831 11 348 0.0 0.0 0.00 0.00 0.00 61 1003.9
20260503023555 11 348 0.0 0.0 0.00 0.00 0.00 61 1003.9
20260503022831 11 348 0.0 0.0 0.00 0.00 0.00 60 1003.9
20260503022323 11 348 0.0 1.6 0.00 0.00 0.00 62 1004.0
20260503021804 11 348 0.0 1.6 0.00 0.00 0.00 60 1004.0
20260503021302 11 348 0.0 3.2 0.00 0.00 0.00 59 1003.9
20260503020802 11 348 0.0 3.2 0.00 0.00 0.00 57 1003.9
20260503020302 11 348 0.0 3.2 0.00 0.00 0.00 56 1003.8
20260503015802 12 348 0.0 3.2 0.00 0.00 0.00 56 1003.9
20260503015305 12 348 0.0 0.0 0.00 0.00 0.00 57 1003.9
20260503014802 12 348 0.0 0.0 0.00 0.00 0.00 56 1003.8
20260503014302 12 348 0.0 0.0 0.00 0.00 0.00 56 1003.9
20260503014022 13 348 0.0 0.0 0.00 0.00 0.00 52 1003.8
20260503013302 13 348 0.0 0.0 0.00 0.00 0.00 52 1003.8
20260503012803 13 348 0.0 0.0 0.00 0.00 0.00 53 1003.7
20260503012305 13 348 0.0 0.0 0.00 0.00 0.00 52 1003.8
20260503011802 13 348 0.0 0.0 0.00 0.00 0.00 52 1003.8
20260503011302 14 348 0.0 0.0 0.00 0.00 0.00 50 1003.8
20260503010802 14 348 0.0 0.0 0.00 0.00 0.00 49 1003.8
20260503010303 14 348 0.0 0.0 0.00 0.00 0.00 49 1003.8
20260503005802 14 348 0.0 0.0 0.00 0.00 0.00 48 1003.8
20260503005304 15 348 0.0 0.0 0.00 0.00 0.00 47 1003.9
20260503004802 15 6 0.0 0.0 0.00 0.00 0.00 45 1003.7
20260503004303 15 6 0.0 0.0 0.00 0.00 0.00 44 1003.8
20260503003802 15 6 0.0 0.0 0.00 0.00 0.00 42 1003.8
20260503003302 15 6 0.0 0.0 0.00 0.00 0.00 42 1003.9
20260503002803 15 6 0.0 0.0 0.00 0.00 0.00 42 1003.9
20260503002305 15 6 0.0 3.2 0.00 0.00 0.00 41 1003.9
20260503002022 15 6 0.0 3.2 0.00 0.00 0.00 41 1004.0
20260503001302 15 7 0.0 1.6 0.00 0.00 0.00 40 1004.0
20260503000740 15 8 0.0 3.2 0.00 0.00 0.00 40 1004.0